Location: Newark
(40.9833°N, 0.0333°W)
Time: 02:55:41
(UTC+00:00)

Transit 2A Rocket - Pass Details

Date: 30 October 2020
Orbit: 588 x 914 km, 66.7° (Epoch: 26 November)

Event Time Altitude Azimuth Distance (km) Brightness Sun altitude
Rises 07:37:46 0° 167° (SSE) 3,524 9.1 11.0°
Reaches altitude 10° 07:40:52 10° 152° (SSE) 2,595 8.9 11.5°
Maximum altitude 07:45:15 21° 106° (ESE) 1,924 8.9 12.2°
Drops below altitude 10° 07:49:35 10° 60° (ENE) 2,569 8.2 12.9°
Sets 07:52:38 0° 45° (NE) 3,478 8.6 13.4°
